Regional Weather Roundup
Issued by NWS

Home | Current Version | Previous Version | Text Only | Print | Product List | Glossary Off
Versions: 1 2 3 4 5 6 7 8 9 10 11 12 13 14 15 16 17 18 19 20 21 22 23 24 25 26 27 28 29 30 31 32 33 34 35 36 37 38 39 40 41 42 43 44 45 46 47 48 49 50

000
ASUS45 KTFX 270110
RWRMT
MONTANA REGIONAL WEATHER ROUNDUP
NATIONAL WEATHER SERVICE GREAT FALLS MT
700 PM MDT WED APR 26 2017

NOTE: "FAIR" INDICATES FEW OR NO CLOUDS BELOW 12000 FEET WITH NO
SIGNIFICANT WEATHER AND/OR OBSTRUCTIONS TO VISIBILITY.

MTZ001>007-043-270200-
WEST OF THE DIVIDE

CITY           SKY/WX    TMP DP  RH WIND       PRES   REMARKS
KALISPELL      CLOUDY    45  41  86 SE8       29.63F
MISSOULA       CLOUDY    47  38  71 N13       29.66R
BUTTE          CLOUDY    44  30  57 CALM      29.62F
MULLAN PASS    SNOW      30  30 100 NW8       29.66S VSB 1/4 WCI  22
ANACONDA         N/A     46  30  53 N8        29.62S
DEER LODGE       N/A     46  32  57 CALM      29.64S
EUREKA           N/A     50  36  57 SE9       29.61R
HAMILTON         N/A     48  34  57 NW6       29.64R
LIBBY            N/A     46  37  71 SE7       29.64R
$$

MTZ008-052>055-270200-
SOUTHWEST MONTANA

CITY           SKY/WX    TMP DP  RH WIND       PRES   REMARKS
BOZEMAN        CLOUDY    41  36  82 E8        29.64F
DILLON         CLOUDY    45  33  63 S13       29.61F
W YELLOWSTONE  CLOUDY    34  32  93 S7        29.67F WCI  28
THREE FORKS      N/A     43  43 100 CALM      29.67S
$$

MTZ009-010-012-014-046-048-049-054-270200-
EAST SLOPES AND CENTRAL MONTANA

CITY           SKY/WX    TMP DP  RH WIND       PRES   REMARKS
CUT BANK       CLOUDY    45  36  70 CALM      29.58F
GREAT FALLS    LGT RAIN  44  37  76 W10       29.61R
MALMSTROM AFB  SHOWER    45  40  83 SW13      29.60R
HELENA         CLOUDY    50  36  58 W8        29.60F
AUGUSTA        PTSUNNY   43  38  83 N14       29.59S
BOWMANS CRNR   PTSUNNY   43  37  78 NE10      29.58S
CHOTEAU          N/A     43  39  87 SE7       29.62F
FAIRFIELD        N/A     44  39  82 NW16G23   29.59S
POWER          LGT RAIN  43  38  83 E3        29.59R
RAYNESFORD     LGT RAIN  42  37  83 SW18      29.61F
ULM            LGT RAIN  44  38  81 N6        29.61R
$$

MTZ011-013-016-021-045-047-050-051-270200-
NORTH CENTRAL MONTANA

CITY           SKY/WX    TMP DP  RH WIND       PRES   REMARKS
HAVRE          PTSUNNY   50  40  68 NE7       29.61F
LEWISTOWN      RAIN      41  37  86 SW10      29.63R
N BAR RANCH    CLOUDY    41  37  87 SE7G13    29.66S
CHINOOK          N/A     48  39  71 CALM      29.63S
DENTON         PTSUNNY   45  41  83 MISG      29.58F
FORT BENTON      N/A     52  39  62 N9        29.59S
GEYSER         PTSUNNY   42  38  86 SW9       29.61S
GRASS RANGE    PTSUNNY   45  39  80 SE9       29.60S
JUDITH GAP     PTSUNNY   38  36  90 E6        29.62F
STANFORD       LGT RAIN  38  36  92 SW17      29.60F WCI  28
WINIFRED         N/A     46  40  81 SE10      29.60F
$$

MTZ017>020-022>027-061-062-270200-
NORTHEAST MONTANA

CITY           SKY/WX    TMP DP  RH WIND       PRES   REMARKS
GLASGOW        SUNNY     49  26  41 S12       29.69F
JORDAN           N/A     48  31  51 SE10      29.68S
SIDNEY         CLEAR     49  22  34 E9        29.74F
WOLF POINT     SUNNY     51  25  36 E13       29.72S
MALTA          MOSUNNY   50  32  50 SE10      29.67S
PLENTYWOOD       N/A     46  19  34 E12       29.76F
POPLAR           N/A     48  23  37 SE13      29.74S
$$

MTZ028>42-056>058-270200-
SOUTHCENTRAL AND SOUTHEAST MONTANA

CITY           SKY/WX    TMP DP  RH WIND       PRES   REMARKS
BAKER          CLEAR     44  26  49 SE8       29.72F
BILLINGS       MOSUNNY   50  36  58 CALM      29.62S
LIVINGSTON     LGT RAIN  43  38  82 NW17      29.63R
MILES CITY     MOSUNNY   48  31  51 SE9       29.69F
BIG TIMBER     MOSUNNY   43  39  87 SE8       29.65S
LAUREL           N/A     50  35  56 N5        29.65R
ROUNDUP          N/A     45  38  76 W5        29.59S
$$

REGIONAL REPORTS...DAKOTAS

CITY           SKY/WX    TMP DP  RH WIND       PRES   REMARKS
WILLISTON      CLEAR     49  19  30 E12       29.76F
MINOT          CLEAR     46  25  43 NE12      29.77S
DICKINSON      CLEAR     43  20  39 NE9       29.72S
BEACH            N/A     45  21  39 E12       29.75S
TIOGA            N/A     43  18  36 E16       29.78S
WATFORD CITY     N/A     46  18  31 E13       29.75F
BISMARCK       MOCLDY    42  29  59 NE17      29.76S
GRAND FORKS    LGT SNOW  32  30  92 N16       29.78R VSB 1   WCI  21
FARGO          LGT SNOW  29  27  92 N18       29.72S FOG     WCI  16
BUFFALO SD       N/A     45  27  49 NE6       29.65F
RAPID CITY     CLOUDY    39  30  70 N9        29.73F
$$

REGIONAL REPORTS...WYOMING/IDAHO/WASHINGTON

CITY           SKY/WX    TMP DP  RH WIND       PRES   REMARKS
GILLETTE       CLEAR     43  31  62 NE6       29.66F
SHERIDAN       MOSUNNY   36  30  79 S3        29.67F
BUFFALO WY     CLOUDY    38  32  79 CALM      29.68S
CODY           CLOUDY    52  28  39 W9G22     29.60F
YELLOWSTONE LA   N/A     29  28  96 W5        29.70F
IDAHO FALLS    CLOUDY    43  40  89 S18       29.69F
SALMON         CLOUDY    46  36  66 S7        29.64F
BOISE          CLOUDY    52  41  66 E6        29.70F
SPOKANE        PTSUNNY   54  35  48 SW23G31   29.65F
$$

REGIONAL REPORTS...ALBERTA

CITY           SKY/WX    TMP DP  RH WIND       PRES   REMARKS
EDMONTON       CLOUDY    36  30  80 SE7       29.74S WCI  30
CALGARY        CLOUDY    37  32  81 E12       29.64S WCI  30
LETHBRIDGE     PTSUNNY   46  37  71 NE13      29.60R
MEDICINE HAT   CLOUDY    45  39  81 E7        29.64S
CARDSTON         N/A     45  36  70 NE6         N/A
MILK RIVER       N/A     45  37  76 E9          N/A
$$

REGIONAL REPORTS...SASKATCHEWAN

CITY           SKY/WX    TMP DP  RH WIND       PRES   REMARKS
SWIFT CURRENT  CLOUDY    45  28  53 SE13G21   29.68S
REGINA         PTSUNNY   45  16  31 E14G20    29.80F
SASKATOON      CLOUDY    43  14  31 SE13G18   29.84F
CYPRESS HILLS    N/A     43  32  65 S6          N/A
VAL MARIE        N/A     46  27  46 SE12        N/A
ROCKGLEN         N/A     43  25  49 SE10        N/A
ASSINIBOIA       N/A     36  34  93 E9          N/A  WCI  29
$$



USA.gov is the U.S. government's official web portal to all federal, state and local government web resources and services.